Satellite: POLLUX
Catalog number: 35693
Epoch time:      09239.60138911
Element set:      27
Inclination:      051.6418 deg
RA of node:       298.7448 deg
Eccentricity:    0.0004047
Arg of perigee:   103.3990 deg
Mean anomaly:     256.7477 deg
Mean motion:   15.80951234 rev/day
Decay rate:     1.4243e-04 rev/day^2
Epoch rev:             441
Checksum:              300

Satellite: CASTOR
Catalog number: 35694
Epoch time:      09239.60743633
Element set:      27
Inclination:      051.6428 deg
RA of node:       298.7907 deg
Eccentricity:    0.0004563
Arg of perigee:   113.0465 deg
Mean anomaly:     247.1027 deg
Mean motion:   15.80405492 rev/day
Decay rate:      7.866e-05 rev/day^2
Epoch rev:             441
Checksum:              302

/EX



_______________________________________________
Via the Keps mailing list courtesy of AMSAT-NA
http://amsat.org/mailman/listinfo/keps

--- ViaMAIL!/WC v1.60d
 * Origin: Chowdanet (401-724-4410) telnet://chowdanet.com  (1:323/120)